Hourly Weather Cancún

Today, 1 October, Thursday

Time Temperature Precipitation Wind Pressure Humidity
00:00 +26°C° 0 mm 2 mps 758 mmHg 94%
01:00 +26°C° 0.1 mm 2 mps 757 mmHg 95%
02:00 +26°C° 0.1 mm 2 mps 757 mmHg 95%
03:00 +26°C° 0.1 mm 2 mps 757 mmHg 96%
04:00 +26°C° 0.3 mm 1 mps 757 mmHg 96%
05:00 +26°C° 0.3 mm 1 mps 757 mmHg 96%
06:00 +26°C° 0.3 mm 1 mps 757 mmHg 97%
07:00 +27°C° 0.2 mm 1 mps 758 mmHg 94%
08:00 +28°C° 0.2 mm 1 mps 758 mmHg 92%
09:00 +29°C° 0.2 mm 1 mps 758 mmHg 89%
10:00 +30°C° 0.7 mm 1 mps 758 mmHg 88%
11:00 +30°C° 0.7 mm 1 mps 758 mmHg 88%
12:00 +30°C° 0.7 mm 1 mps 757 mmHg 87%
13:00 +30°C° 0.4 mm 2 mps 757 mmHg 86%
14:00 +30°C° 0.4 mm 2 mps 756 mmHg 85%
15:00 +31°C° 0.4 mm 2 mps 756 mmHg 85%
16:00 +30°C° 0.1 mm 3 mps 756 mmHg 87%
17:00 +28°C° 0.1 mm 3 mps 756 mmHg 90%
18:00 +27°C° 0.1 mm 3 mps 756 mmHg 92%
19:00 +27°C° 0.6 mm 3 mps 757 mmHg 93%
20:00 +27°C° 0.6 mm 3 mps 757 mmHg 93%
21:00 +26°C° 0.6 mm 3 mps 758 mmHg 94%
22:00 +26°C° 0.4 mm 3 mps 757 mmHg 93%
23:00 +26°C° 0.4 mm 3 mps 757 mmHg 93%

Tomorrow, 2 October, Friday

Time Temperature Precipitation Wind Pressure Humidity
00:00 +26°C° 0.4 mm 3 mps 756 mmHg 92%
01:00 +26°C° 0.4 mm 3 mps 756 mmHg 92%
02:00 +26°C° 0.4 mm 3 mps 755 mmHg 93%
03:00 +26°C° 0.4 mm 4 mps 755 mmHg 93%
04:00 +26°C° 0.5 mm 4 mps 755 mmHg 93%
05:00 +26°C° 0.5 mm 4 mps 755 mmHg 94%
06:00 +26°C° 0.5 mm 4 mps 755 mmHg 94%
07:00 +27°C° 1.4 mm 5 mps 755 mmHg 94%
08:00 +28°C° 1.4 mm 5 mps 756 mmHg 93%
09:00 +29°C° 1.4 mm 5 mps 756 mmHg 93%
10:00 +29°C° 2.2 mm 6 mps 756 mmHg 93%
11:00 +28°C° 2.2 mm 7 mps 755 mmHg 94%
12:00 +28°C° 2.2 mm 7 mps 755 mmHg 94%
13:00 +28°C° 2.4 mm 8 mps 754 mmHg 94%
14:00 +27°C° 2.4 mm 8 mps 754 mmHg 95%
15:00 +27°C° 2.4 mm 8 mps 753 mmHg 95%
16:00 +26°C° 6.5 mm 7 mps 753 mmHg 96%
17:00 +26°C° 6.5 mm 6 mps 753 mmHg 97%
18:00 +26°C° 6.5 mm 5 mps 753 mmHg 98%
19:00 +26°C° 24.8 mm 6 mps 753 mmHg 98%
20:00 +26°C° 24.8 mm 7 mps 754 mmHg 98%
21:00 +26°C° 24.8 mm 8 mps 754 mmHg 99%
22:00 +26°C° 18.6 mm 7 mps 753 mmHg 98%
23:00 +26°C° 18.6 mm 7 mps 753 mmHg 98%

Day after tomorrow, 3 October, Saturday

Time Temperature Precipitation Wind Pressure Humidity
00:00 +26°C° 18.6 mm 6 mps 752 mmHg 98%
01:00 +26°C° 5.7 mm 6 mps 752 mmHg 98%
02:00 +26°C° 5.7 mm 6 mps 752 mmHg 98%
03:00 +26°C° 5.7 mm 6 mps 751 mmHg 98%
04:00 +26°C° 4 mm 6 mps 751 mmHg 98%
05:00 +26°C° 4 mm 6 mps 752 mmHg 99%
06:00 +26°C° 4 mm 5 mps 752 mmHg 99%
07:00 +26°C° 3.1 mm 5 mps 752 mmHg 98%
08:00 +26°C° 3.1 mm 5 mps 752 mmHg 97%
09:00 +27°C° 3.1 mm 5 mps 753 mmHg 96%
10:00 +27°C° 0.5 mm 5 mps 753 mmHg 95%
11:00 +28°C° 0.5 mm 6 mps 752 mmHg 95%
12:00 +28°C° 0.5 mm 7 mps 752 mmHg 94%
13:00 +28°C° 0.4 mm 7 mps 752 mmHg 94%
14:00 +27°C° 0.4 mm 7 mps 751 mmHg 95%
15:00 +27°C° 0.4 mm 7 mps 751 mmHg 95%
16:00 +27°C° 0.1 mm 7 mps 751 mmHg 94%
17:00 +27°C° 0.1 mm 6 mps 751 mmHg 93%
18:00 +27°C° 0.1 mm 6 mps 752 mmHg 92%
19:00 +26°C° 0.1 mm 6 mps 752 mmHg 93%
20:00 +26°C° 0.1 mm 6 mps 753 mmHg 94%
21:00 +26°C° 0.1 mm 6 mps 753 mmHg 94%
22:00 +26°C° 0 mm 6 mps 753 mmHg 94%
23:00 +26°C° 0 mm 6 mps 753 mmHg 94%

4 October, Sunday

Time Temperature Precipitation Wind Pressure Humidity
00:00 +26°C° 0 mm 5 mps 753 mmHg 94%
01:00 +26°C° 0 mm 5 mps 753 mmHg 94%
02:00 +26°C° 0 mm 5 mps 753 mmHg 94%
03:00 +26°C° 0 mm 5 mps 753 mmHg 94%
04:00 +26°C° 0 mm 5 mps 753 mmHg 94%
05:00 +26°C° 0 mm 5 mps 753 mmHg 93%
06:00 +26°C° 0 mm 5 mps 753 mmHg 93%
07:00 +27°C° 0 mm 5 mps 754 mmHg 89%
08:00 +28°C° 0 mm 5 mps 754 mmHg 85%
09:00 +29°C° 0 mm 5 mps 755 mmHg 81%
10:00 +32°C° 0.1 mm 5 mps 754 mmHg 76%
11:00 +33°C° 0.1 mm 5 mps 754 mmHg 70%
12:00 +35°C° 0.1 mm 5 mps 754 mmHg 65%
13:00 +33°C° 1.9 mm 5 mps 754 mmHg 75%
14:00 +32°C° 1.9 mm 5 mps 753 mmHg 84%
15:00 +29°C° 1.9 mm 5 mps 753 mmHg 94%
16:00 +29°C° 0.9 mm 5 mps 753 mmHg 95%
17:00 +28°C° 0.9 mm 4 mps 754 mmHg 96%
18:00 +27°C° 0.9 mm 4 mps 754 mmHg 97%
19:00 +27°C° 0 mm 4 mps 754 mmHg 98%
20:00 +27°C° 0 mm 4 mps 755 mmHg 98%
21:00 +26°C° 0 mm 4 mps 755 mmHg 98%
22:00 +26°C° 0 mm 4 mps 755 mmHg 98%
23:00 +26°C° 0 mm 4 mps 755 mmHg 98%

5 October, Monday

Time Temperature Precipitation Wind Pressure Humidity
00:00 +26°C° 0 mm 4 mps 755 mmHg 98%
01:00 +26°C° 0 mm 4 mps 754 mmHg 98%
02:00 +26°C° 0 mm 4 mps 754 mmHg 98%
03:00 +26°C° 0 mm 3 mps 754 mmHg 98%
04:00 +26°C° 0 mm 3 mps 754 mmHg 98%
05:00 +26°C° 0 mm 3 mps 755 mmHg 97%
06:00 +26°C° 0 mm 3 mps 755 mmHg 97%
07:00 +27°C° 0 mm 3 mps 755 mmHg 94%
08:00 +27°C° 0 mm 3 mps 756 mmHg 91%
09:00 +28°C° 0 mm 3 mps 756 mmHg 88%
10:00 +31°C° 0 mm 3 mps 756 mmHg 78%
11:00 +34°C° 0 mm 3 mps 755 mmHg 68%
12:00 +36°C° 0 mm 2 mps 755 mmHg 58%
13:00 +35°C° 0.8 mm 3 mps 755 mmHg 69%
14:00 +33°C° 0.8 mm 3 mps 754 mmHg 80%
15:00 +30°C° 0.8 mm 4 mps 754 mmHg 90%
16:00 +29°C° 1.1 mm 4 mps 754 mmHg 92%
17:00 +28°C° 1.1 mm 4 mps 755 mmHg 94%
18:00 +27°C° 1.1 mm 3 mps 755 mmHg 97%
19:00 +27°C° 1.2 mm 4 mps 755 mmHg 97%
20:00 +27°C° 1.2 mm 4 mps 756 mmHg 97%
21:00 +27°C° 1.2 mm 4 mps 756 mmHg 98%
22:00 +27°C° 0.2 mm 4 mps 756 mmHg 98%
23:00 +27°C° 0.2 mm 4 mps 756 mmHg 98%

6 October, Tuesday

Time Temperature Precipitation Wind Pressure Humidity
00:00 +27°C° 0.2 mm 4 mps 756 mmHg 98%
01:00 +27°C° 0.2 mm 3 mps 755 mmHg 98%
02:00 +26°C° 0.2 mm 3 mps 755 mmHg 98%
03:00 +26°C° 0.2 mm 3 mps 755 mmHg 98%
04:00 +26°C° 0.8 mm 2 mps 755 mmHg 98%
05:00 +26°C° 0.8 mm 2 mps 756 mmHg 98%
06:00 +26°C° 0.8 mm 2 mps 756 mmHg 98%
07:00 +27°C° 0.4 mm 2 mps 756 mmHg 95%
08:00 +29°C° 0.4 mm 3 mps 756 mmHg 92%
09:00 +30°C° 0.4 mm 3 mps 757 mmHg 89%
10:00 +31°C° 0.3 mm 3 mps 756 mmHg 82%
11:00 +33°C° 0.3 mm 4 mps 756 mmHg 75%
12:00 +34°C° 0.3 mm 4 mps 756 mmHg 68%
13:00 +34°C° 0.3 mm 4 mps 755 mmHg 70%
14:00 +33°C° 0.3 mm 4 mps 755 mmHg 71%
15:00 +33°C° 0.3 mm 4 mps 755 mmHg 72%
16:00 +30°C° 0.3 mm 4 mps 755 mmHg 80%
17:00 +29°C° 0.3 mm 3 mps 755 mmHg 88%
18:00 +27°C° 0.3 mm 3 mps 756 mmHg 96%
19:00 +27°C° 0.4 mm 3 mps 756 mmHg 96%
20:00 +26°C° 0.4 mm 3 mps 757 mmHg 97%
21:00 +26°C° 0.4 mm 3 mps 757 mmHg 97%
22:00 +26°C° 0.9 mm 2 mps 757 mmHg 98%
23:00 +26°C° 0.9 mm 2 mps 757 mmHg 98%
Show more

We Need Your Consent

Meteoprog and our Service Providers may store and access personal data such as cookies, device identifiers or other similar technologies on your device and process such data to personalise content and ads, as well as provide social media features and to analyse the traffic.

  • Store and/or access information on your device

    Cookies, device identifiers or other information can be stored or accessed on your device for the purposes indicated above.

  • Personalised ads and content, ad and content measurement, audience insights, and products development

    Ads and content can be personalised based on a profile. More data can be added to better personalise ads and content. Ad and content performance can be measured. Insights about the audience who saw the ads and content can be derived. Such data can be used to develop or improve user’s experience, systems and software.

By clicking ‘I Agree’ you will allow the use of indicated cookies, device identifiers, web beacons or other similar technologies. Your settings can be changed in the browser on your device.

For certain purposes, legitimate interests may be relied on, rather than consent. You can read more about this in our Privacy and Cookie Policy.